{"data":{"norad_id":62641,"epoch":"2026-05-25T04:10:55.339104Z","epoch_age_seconds":53201,"freshness":"FRESH","line1":"1 62641U 25009AJ  26145.17425161  .00010654  00000+0  38334-3 0  9999","line2":"2 62641  97.3934 226.7100 0003056  63.7769 296.3785 15.28780832 75383","mean_motion":15.28780832,"eccentricity":0.0003056,"inclination_deg":97.3934,"raan_deg":226.71,"arg_perigee_deg":63.7769,"mean_anomaly_deg":296.3785,"bstar":0.00038334,"rev_number":7538,"period_min":94.192703745255,"perigee_km":477.36004655341,"apogee_km":481.55140722809,"semimajor_km":6857.5927268908,"source":"CELESTRAK","updated_at":"2026-05-25T13:38:13.338810Z"}}